User: anonymous   Login
Location: Unspecified
(0.0000°N, 0.0000°E)
Time: 06:08:09
(UTC+00:00)
Language:

EDRS-C - Orbit

View from above orbital plane
View from above orbital plane
View from above satellite
View from above satellite

Ground track
Ground track

The orbit data is extracted from the following two-line orbital elements,

1 44475U 19049A   22176.15435863  .00000160  00000-0  00000-0 0  9997
2 44475   0.0189 261.3862 0000679 179.6663 278.9494  1.00271967 10638
Epoch (UTC): 25 June 2022 03:42:16
Eccentricity: 0.0000679
inclination: 0.0189°
perigee height: 35783 km
apogee height: 35789 km
right ascension of ascending node: 261.3862°
argument of perigee: 179.6663°
revolutions per day: 1.00271967
mean anomaly at epoch: 278.9494°
orbit number at epoch: 1063

The dashed part of the orbit path shows where the satellite is in the earth's shadow,  

DLR